Location: Unspecified
(35.7250°N, 0.0000°E)
Time: 20:33:16
(UTC+00:00)

Vanguard 1 - Pass Details

Date: 01 July 2019
Orbit: 653 x 3830 km, 34.3° (Epoch: 22 July)

Event Time Altitude Azimuth Distance (km) Brightness Sun altitude
Rises 06:37:20 0° 286° (WNW) 6,546 13.8 19.8°
Reaches altitude 10° 06:42:51 10° 279° (W) 4,976 13.2 20.8°
Maximum altitude 06:53:35 33° 222° (SW) 2,390 11.8 23.0°
Drops below altitude 10° 07:00:05 10° 160° (SSE) 2,964 12.7 24.3°
Sets 07:02:31 0° 149° (SSE) 3,648 13.2 24.7°
